Weather History for Walla Walla, WA

Change the Weather History Date:

Thursday, May 2, 2013

  Actual Average Record
Temperature  
Mean Temperature 57 °F -  
Max Temperature 75 °F 67 °F 82 °F (1966)
Min Temperature 41 °F 45 °F 32 °F (1954)
Degree Days  
Heating Degree Days 8    
Growing Degree Days 7 (Base 50)    
Moisture  
Dew Point 31 °F    
Average Humidity 38    
Maximum Humidity 65    
Minimum Humidity 18    
Precipitation  
Precipitation 0.00 in - - ()
Sea Level Pressure  
Sea Level Pressure 30.42 in    
Wind  
Wind Speed 4 mph (East)    
Max Wind Speed 9 mph    
Max Gust Speed -    
Visibility 9 miles    
Events      
Averages and records for this station are not official NWS values.
T = Trace of Precipitation, MM = Missing Value Source: NWS Daily Summary

Daily Weather History Graph

Daily Weather History Graph

Search for Another Location

Airport:

Trip Planner

Search our weather history database for the weather conditions in past years. The results will help you decide how hot, cold, wet, or windy it might be!

Date:

Astronomy

May. 02, 2013 Rise Set
Actual Time 5:37 AM PDT 8:03 PM PDT
Civil Twilight 5:04 AM PDT 8:36 PM PDT
Nautical Twilight 4:22 AM PDT 9:18 PM PDT
Astronomical Twilight 3:35 AM PDT 10:06 PM PDT
Moon 1:52 AM PDT (5/2) 12:34 PM PDT (5/2)
Length of Visible Light 15h 32m
Length of Day
14h 25m
Waning Gibbous, 46% of the Moon is Illuminated
May 2
Waning Gibbous
May 9
New
May 17
First Quarter
May 24
Full
May 31
Last Quarter

Hourly Weather History & Observations

Time (PDT) Temp. Windchill Dew Point Humidity Pressure Visibility Wind Dir Wind Speed Gust Speed Precip Events Conditions
12:53 AM 45.0 °F 41.8 °F 30.9 °F 58% 30.57 in 10.0 mi ESE 5.8 mph - N/A   Clear
1:53 AM 45.0 °F 41.2 °F 28.9 °F 53% 30.56 in 10.0 mi ESE 6.9 mph - N/A   Clear
2:53 AM 41.0 °F 35.2 °F 30.0 °F 65% 30.54 in 10.0 mi East 9.2 mph - N/A   Clear
3:53 AM 45.0 °F - 28.0 °F 52% 30.54 in 10.0 mi Calm Calm - N/A   Clear
4:53 AM 44.1 °F 42.5 °F 28.9 °F 55% 30.54 in 10.0 mi ESE 3.5 mph - N/A   Clear
5:53 AM 45.0 °F - 28.9 °F 53% 30.54 in 10.0 mi Calm Calm - N/A   Clear
6:53 AM 46.9 °F - 30.9 °F 54% 30.54 in 10.0 mi Calm Calm - N/A   Clear
7:53 AM 48.9 °F - 30.9 °F 50% 30.54 in 10.0 mi Calm Calm - N/A   Clear
8:53 AM 52.0 °F - 35.1 °F 53% 30.55 in 10.0 mi West 4.6 mph - N/A   Clear
9:53 AM 55.9 °F - 33.1 °F 42% 30.53 in 10.0 mi SSW 4.6 mph - N/A   Clear
10:53 AM 59.0 °F - 33.1 °F 38% 30.51 in 10.0 mi West 3.5 mph - N/A   Clear
11:53 AM 63.0 °F - 28.9 °F 28% 30.48 in 10.0 mi Calm Calm - N/A   Clear
12:53 PM 66.9 °F - 28.9 °F 24% 30.44 in 10.0 mi WSW 5.8 mph - N/A   Clear
1:53 PM 70.0 °F - 30.9 °F 24% 30.41 in 10.0 mi Variable 3.5 mph - N/A   Clear
2:53 PM 72.0 °F - 28.0 °F 20% 30.38 in 10.0 mi East 3.5 mph - N/A   Clear
3:31 PM 73.4 °F - 26.6 °F 18% 30.35 in 2.5 mi Variable 3.5 mph - N/A   Haze
3:47 PM 73.4 °F - 26.6 °F 18% 30.34 in 1.0 mi West 3.5 mph - N/A   Haze
3:53 PM 73.9 °F - 27.0 °F 18% 30.34 in 10.0 mi North 6.9 mph - N/A   Clear
4:00 PM 73.4 °F - 26.6 °F 18% 30.34 in 10.0 mi North 5.8 mph - N/A   Partly Cloudy
4:53 PM 73.0 °F - 28.9 °F 20% 30.31 in 10.0 mi North 4.6 mph - N/A   Clear
5:53 PM 73.0 °F - 28.9 °F 20% 30.30 in 10.0 mi Calm Calm - N/A   Clear
6:53 PM 73.0 °F - 30.0 °F 20% 30.28 in 10.0 mi Calm Calm - N/A   Clear
7:53 PM 66.9 °F - 37.9 °F 34% 30.27 in 10.0 mi East 3.5 mph - N/A   Clear
8:53 PM 59.0 °F - 41.0 °F 51% 30.27 in 10.0 mi East 9.2 mph - N/A   Clear
9:53 PM 60.1 °F - 39.0 °F 46% 30.26 in 10.0 mi East 9.2 mph - N/A   Clear
10:53 PM 59.0 °F - 37.9 °F 46% 30.25 in 10.0 mi East 3.5 mph - N/A   Clear
11:53 PM 57.9 °F - 39.0 °F 49% 30.25 in 10.0 mi East 3.5 mph - N/A   Overcast